Home > Weather > Northampton > Past weeks

Flag for United Kingdom Past Weather in Northampton, England, United Kingdom — Yesterday and Last 2 Weeks

Now
72 °F

Passing clouds.


Feels Like: 72 °F
Forecast: 54 / 71 °F
Wind: 6 mph from North

Location: Cranfield

Current Time: Aug 25, 2016 at 12:43:45 PM

Latest Report: Aug 25, 2016 at 12:20 PM


Visibility: 4 mi

Pressure: 30.01 "Hg

Humidity: 78%

Dew Point: 64 °F

Location of NorthamptonLocation

Past Weather in Northampton — Graph

°F

Northampton Temperature Yesterday

Maximum temperature yesterday: 86 °F (at 2:50 PM)
Minimum temperature yesterday: 64 °F (at 7:20 AM)
Average temperature yesterday: 79 °F

High & Low Weather Summary for the Past Weeks

 TemperatureHumidityPressure
High86 °F (Aug 24, 2:50 PM)100% (Aug 17, 7:20 AM)30.30 "Hg (Aug 17, 7:20 AM)
Low54 °F (Aug 16, 7:20 AM)36% (Aug 17, 4:50 PM)29.62 "Hg (Aug 19, 4:50 PM)
Average69 °F69%30.05 "Hg
* Reported Aug 10 11:20 AM — Aug 25 11:20 AM, Northampton, Weather by CustomWeather, © 2016

Note: Actual official high and low records may vary slightly from our data, if they occured in-between our weather recording intervals... More about our weather records

Advertising

Northampton Weather History for the Previous 24 Hours

Scroll right to see more
 ConditionsComfort  
Time TempWeatherWind HumidityBarometerVisibility
11:20 AM
Thu, Aug 25
66 °FPartly sunny.5 mph88%30.01 "Hg2 mi
10:50 AM66 °FPartly sunny.5 mph94%30.01 "Hg2 mi
10:20 AM66 °FFog.6 mph94%30.01 "Hg2 mi
9:50 AM64 °FFog.6 mph94%30.01 "Hg2 mi
9:20 AM64 °FFog.6 mph94%30.01 "Hg1 mi
8:50 AM63 °FFog.7 mph100%30.01 "Hg1 mi
8:20 AM63 °FFog.9 mph94%30.01 "Hg1 mi
7:50 AM63 °FFog.10 mph94%30.01 "Hg1 mi
5:50 PM
Wed, Aug 24
82 °FPassing clouds.7 mph51%30.07 "HgN/A
5:20 PM86 °FPassing clouds.6 mph43%30.04 "HgN/A
4:50 PM86 °FPassing clouds.6 mph46%30.04 "HgN/A
4:20 PM86 °FSunny.5 mph46%30.04 "Hg10 mi
3:50 PM86 °FSunny.2 mph46%30.04 "Hg10 mi
3:20 PM86 °FSunny.3 mph43%30.07 "Hg10 mi
2:50 PM86 °FSunny.5 mph46%30.07 "Hg10 mi
2:20 PM84 °FPassing clouds.7 mph48%30.07 "HgN/A
1:50 PM84 °FSunny.6 mph48%30.07 "Hg10 mi
1:20 PM82 °FSunny.6 mph51%30.07 "Hg10 mi
12:50 PM82 °FSunny.6 mph51%30.07 "Hg10 mi
12:20 PM81 °FSunny.5 mph54%30.07 "Hg10 mi
Weather by CustomWeather, © 2016

See weather overviewHow to use our weather pages